This is the latest recevied weather packets stored in our database for station/object KJ7IVE-13. If no packets are shown the sender has not sent any weather packets the latest 10 day(s).
| Time | Temp. | Humidity | Pressure | Rain* | Wind** | Luminosity | Snow |
|---|---|---|---|---|---|---|---|
| 1777730566 | 12.78° C | 10% | 1022.6 hPa | 0 mm | - | 125 W/m² | - |
| 1777730262 | 12.22° C | 10% | 1022.4 hPa | 0 mm | - | 122 W/m² | - |
| 1777729048 | 11.11° C | 10% | 1022.6 hPa | 0 mm | - | 63 W/m² | - |
| 1777728745 | 10.56° C | 10% | 1022.6 hPa | 0 mm | - | 56 W/m² | - |
| 1777728442 | 10° C | 10% | 1022.4 hPa | 0 mm | - | 49 W/m² | - |
| 1777728139 | 10° C | 10% | 1022.2 hPa | 0 mm | - | 44 W/m² | - |
| 1777727836 | 9.44° C | 10% | 1022.2 hPa | 0 mm | - | 39 W/m² | - |
| 1777727534 | 8.89° C | 10% | 1022 hPa | 0 mm | - | 34 W/m² | - |
| 1777727230 | 8.89° C | 10% | 1022 hPa | 0 mm | - | 30 W/m² | - |
| 1777726624 | 8.33° C | 10% | 1022 hPa | 0 mm | - | 21 W/m² | - |
| 1777725414 | 9.44° C | 10% | 1021.8 hPa | 0 mm | - | 6 W/m² | - |
| 1777724807 | 9.44° C | 10% | 1022 hPa | 0 mm | - | 1 W/m² | - |
| 1777724202 | 9.44° C | 10% | 1021.7 hPa | 0 mm | - | 0 W/m² | - |
| 1777723899 | 9.44° C | 10% | 1021.7 hPa | 0 mm | - | 0 W/m² | - |
| 1777723292 | 9.44° C | 10% | 1021.6 hPa | 0 mm | - | 0 W/m² | - |
| 1777722686 | 8.89° C | 10% | 1021.9 hPa | 0 mm | - | 0 W/m² | - |
| 1777722080 | 8.89° C | 10% | 1021.7 hPa | 0 mm | - | 0 W/m² | - |
| 1777721777 | 8.89° C | 10% | 1021.7 hPa | 0 mm | - | 0 W/m² | - |
| 1777721475 | 8.89° C | 10% | 1021.7 hPa | 0 mm | - | 0 W/m² | - |
| 1777721172 | 8.89° C | 10% | 1021.8 hPa | 0 mm | - | 0 W/m² | - |
| 1777720870 | 8.89° C | 10% | 1021.7 hPa | 0 mm | - | 0 W/m² | - |
| 1777720567 | 8.33° C | 10% | 1021.8 hPa | 0 mm | - | 0 W/m² | - |
| 1777720264 | 8.33° C | 10% | 1021.7 hPa | 0 mm | - | 0 W/m² | - |
| 1777719962 | 7.78° C | 10% | 1021.8 hPa | 0 mm | - | 0 W/m² | - |
| 1777719659 | 7.22° C | 10% | 1022.2 hPa | 0 mm | - | 0 W/m² | - |
* Rain latest hour (hover to see other rain measurements)
** Current wind speed in m/s (hover to see current wind gust speed)